"Pseudo-MPEC" for P10GxwC

Created 2018 Feb 19 18:18:07 UT using Find_Orb

Astrometry:
     P10GxwC  C2018 02 122SAstrometry,62Kt1vNTU:B!uTN-O^_4t$k;dGwg3(8an46HCPDF51
     P10GxwC  C2018 02 12E%RM2'fKo:OaUn.KEredacted;/N2v0K7$9M]W%\]WcI_Ou.CJoyF51
     P10GxwC  C2018 02 12rXJ=ARP=cUTAn\HQ9'3v^wFwu`JEU#rgseeM5.Z?KwtZriptt/!bF51
     P10GxwC  C2018 02 12`:_`7?[QCZ-FRtNB].a._\BW%8RySabm_t]6=qwdJLlF/T-NEOCPF51

Station data:
(F51) Pan-STARRS 1, Haleakala  (N20.707234 W156.255910)  US/Hawaii.
   Observers N. Primak, A. Schultz, S. Watters, J. Thiel, T. Goggia. Measurer
   PS1 Science Consortium. 1.8-m Ritchey-Chrétien + CCD.

Orbital elements:  P10GxwC
   Perihelion 2019 Apr 15.242299 +/- 214 TT =  5:48:54 (JD 2458588.742299)
Epoch 2018 Feb 12.0 TT = JDT 2458161.5   Earth MOID: 0.6978   AutoNEOCP
M 192.27227 +/- 130                 (J2000 ecliptic)
n   0.39258221 +/- 0.246            Peri.  178.66590 +/- 90
a   1.84720729 +/- 0.773            Node   132.14563 +/- 34
e   0.0729637 +/- 0.277             Incl.   22.32587 +/- 28
P   2.51/916.99d           H 20.3   G  0.15   U 11.8  SR
q 1.71242810 +/- 0.767    Q 1.98198648 +/- 36
From 4 observations 2018 Feb. 12 (57.9 min); mean residual 0".02
Residuals in arcseconds: 
180212 F51  .01+  .02-    180212 F51  .03+  .03+    
180212 F51  .03-  .01+    180212 F51  .01-  .02-    

Ephemerides (geocentric):
Date (UTC) HH   RA              Dec         delta   r     elong  mag " sig PA
---- -- -- --  ------------   ------------  ------ ------ -----  --- ---- ---
2018 02 19 18  09 24 17.361   +24 32 27.61  1.0122 1.9778 162.6 22.4  23d 164
2018 02 19 19  09 24 14.536   +24 33 15.64  1.0123 1.9778 162.5 22.4  23d 164
2018 02 19 20  09 24 11.712   +24 34 03.63  1.0124 1.9778 162.5 22.4  23d 164
2018 02 19 21  09 24 08.890   +24 34 51.59  1.0126 1.9778 162.4 22.4  23d 164
2018 02 19 22  09 24 06.069   +24 35 39.51  1.0127 1.9778 162.4 22.4  23d 164
2018 02 19 23  09 24 03.250   +24 36 27.39  1.0128 1.9778 162.3 22.4  23d 164
2018 02 20 00  09 24 00.433   +24 37 15.24  1.0129 1.9778 162.3 22.4  23d 164
2018 02 20 01  09 23 57.617   +24 38 03.05  1.0131 1.9778 162.2 22.4  23d 164
2018 02 20 02  09 23 54.802   +24 38 50.83  1.0132 1.9777 162.2 22.4  23d 164
2018 02 20 03  09 23 51.989   +24 39 38.57  1.0133 1.9777 162.1 22.4  23d 164
2018 02 20 04  09 23 49.178   +24 40 26.27  1.0134 1.9777 162.1 22.4  23d 164
2018 02 20 05  09 23 46.368   +24 41 13.94  1.0136 1.9777 162.0 22.4  23d 164
2018 02 20 06  09 23 43.560   +24 42 01.57  1.0137 1.9777 162.0 22.4  23d 164
2018 02 20 07  09 23 40.754   +24 42 49.16  1.0138 1.9777 161.9 22.4  23d 164
2018 02 20 08  09 23 37.949   +24 43 36.71  1.0140 1.9777 161.8 22.4  23d 165
2018 02 20 09  09 23 35.146   +24 44 24.23  1.0141 1.9777 161.8 22.4  23d 166
2018 02 20 10  09 23 32.344   +24 45 11.71  1.0142 1.9777 161.7 22.4  23d 167
2018 02 20 11  09 23 29.544   +24 45 59.16  1.0144 1.9777 161.7 22.4  24d 169
2018 02 20 12  09 23 26.746   +24 46 46.56  1.0145 1.9777 161.6 22.4  25d 170
2018 02 20 13  09 23 23.949   +24 47 33.93  1.0146 1.9777 161.6 22.4  25d 171
2018 02 20 14  09 23 21.154   +24 48 21.26  1.0148 1.9776 161.5 22.4  25d 171
2018 02 20 15  09 23 18.361   +24 49 08.56  1.0149 1.9776 161.5 22.4  26d 171
2018 02 20 16  09 23 15.570   +24 49 55.82  1.0150 1.9776 161.4 22.4  26d 170
2018 02 20 17  09 23 12.780   +24 50 43.04  1.0152 1.9776 161.4 22.4  26d 170
2018 02 20 18  09 23 09.991   +24 51 30.22  1.0153 1.9776 161.3 22.4  26d 170
2018 02 20 19  09 23 07.205   +24 52 17.36  1.0154 1.9776 161.3 22.4  26d 169
2018 02 20 20  09 23 04.420   +24 53 04.47  1.0156 1.9776 161.2 22.4  27d 169
2018 02 20 21  09 23 01.637   +24 53 51.54  1.0157 1.9776 161.2 22.4  27d 169
2018 02 20 22  09 22 58.856   +24 54 38.57  1.0158 1.9776 161.1 22.4  27d 168
2018 02 20 23  09 22 56.076   +24 55 25.57  1.0160 1.9776 161.0 22.4  27d 168
2018 02 21 00  09 22 53.298   +24 56 12.52  1.0161 1.9776 161.0 22.4  27d 168
2018 02 21 01  09 22 50.522   +24 56 59.44  1.0163 1.9775 160.9 22.4  27d 167
2018 02 21 02  09 22 47.748   +24 57 46.32  1.0164 1.9775 160.9 22.4  27d 167
2018 02 21 03  09 22 44.976   +24 58 33.16  1.0165 1.9775 160.8 22.4  27d 167
2018 02 21 04  09 22 42.205   +24 59 19.97  1.0167 1.9775 160.8 22.4  27d 167
2018 02 21 05  09 22 39.436   +25 00 06.73  1.0168 1.9775 160.7 22.4  27d 167
2018 02 21 06  09 22 36.669   +25 00 53.46  1.0170 1.9775 160.7 22.4  27d 167
2018 02 21 07  09 22 33.903   +25 01 40.15  1.0171 1.9775 160.6 22.4  27d 167
2018 02 21 08  09 22 31.140   +25 02 26.80  1.0172 1.9775 160.6 22.4  27d 167
2018 02 21 09  09 22 28.378   +25 03 13.41  1.0174 1.9775 160.5 22.4  27d 167
2018 02 21 10  09 22 25.618   +25 03 59.98  1.0175 1.9775 160.5 22.4  27d 167
2018 02 21 11  09 22 22.860   +25 04 46.52  1.0177 1.9774 160.4 22.4  28d 167
2018 02 21 12  09 22 20.104   +25 05 33.01  1.0178 1.9774 160.4 22.4  28d 168
2018 02 21 13  09 22 17.350   +25 06 19.47  1.0180 1.9774 160.3 22.4  28d 168
2018 02 21 14  09 22 14.598   +25 07 05.89  1.0181 1.9774 160.2 22.4  28d 168
2018 02 21 15  09 22 11.847   +25 07 52.27  1.0182 1.9774 160.2 22.4  28d 169
2018 02 21 16  09 22 09.098   +25 08 38.61  1.0184 1.9774 160.1 22.4  29d 169
2018 02 21 17  09 22 06.352   +25 09 24.92  1.0185 1.9774 160.1 22.4  29d 169